Starlink 31783

operational
NORAD ID: 59750 Int'l Des: 2024-090 Owner: SPXS Country: US Constellation: starlink
LEOCIRCULAR

About Starlink 31783

Description loading...

Live Position

Loading 3D Globe...

Upcoming Passes

Altitude History

Altitude vs Time

uPlot chart will show altitude changes over time

Two-Line Element Set

1 59750U 24090W 26067.36753780 -.00001834 00000-0 -57171-4 0 9994
2 59750 42.9922 191.3207 0000527 156.3226 203.7649 15.27569677103222
Epoch: Mar 8, 2026 • Age: 21 hours

Current Status

Altitude 491.9 km
Velocity 7.62 km/s
Sub-Earth Point -31.23°S, 24.13°E
Launch Date May 13, 2024
Age 1.8 years
Type internet

Technical Details

Classification Payload
Mass 730.00 kg
Dry Mass 700.00 kg
Total Mass 730.00 kg
Length 0.30 m
Diameter 4.10 m
Span 29.00 m
Shape Box + pan
Manufacturer SPXS
Bus Type Starlink V2M
Phase Status In Orbit
Owner/State SPXS/US

Large Constellations

Loading constellations...